EW9447 Weather Reports


Display with metric or nautical units.
time (UTC)temp
F
wind
direction
speed
MPH
gust
MPH
rain 1hr
in
rain 24hr
in
rain mn
in
humidity
%
barometer
mb
20260504081535 50 227 6.0 9.0 0.00 0.00 0.00 63 1000.6
20260504044539 52 238 6.0 8.0 0.00 0.00 0.00 53 1003.9
20260504043042 50 236 4.0 5.0 0.00 0.00 0.00 57 1004.0
20260504041536 49 266 0.0 2.0 0.00 0.00 0.00 57 1004.4
20260504040100 49 0 0.0 4.0 0.00 0.00 0.00 57 1004.6
20260504034538 49 195 2.0 3.0 0.00 0.00 0.00 56 1004.8
20260504033039 52 213 2.0 5.0 0.00 0.00 0.00 52 1005.1
20260504031548 52 0 0.0 2.0 0.00 0.00 0.00 51 1005.3
20260504030041 54 0 0.0 2.0 0.00 0.00 0.00 48 1005.5
20260504024542 56 231 0.0 5.0 0.00 0.00 0.00 45 1005.6
20260504023040 57 0 0.0 1.0 0.00 0.00 0.00 43 1005.5
20260504021539 58 0 0.0 2.0 0.00 0.00 0.00 42 1005.5
20260504020039 60 0 0.0 3.0 0.00 0.00 0.00 40 1005.5
20260504014540 61 0 0.0 0.0 0.00 0.00 0.00 38 1005.3
20260504013041 62 0 0.0 0.0 0.00 0.00 0.00 37 1005.5
20260504011541 65 0 0.0 0.0 0.00 0.00 0.00 35 1005.4
20260504010040 68 0 0.0 0.0 0.00 0.00 0.00 33 1005.7
20260504004539 71 0 0.0 2.0 0.00 0.00 0.00 32 1005.9
20260504003035 71 0 0.0 4.0 0.00 0.00 0.00 31 1005.8
20260504001543 72 323 1.0 7.0 0.00 0.00 0.00 30 1006.0
20260504000041 73 0 0.0 2.0 0.00 0.00 0.00 32 1006.0
20260503234600 72 0 0.0 6.0 0.00 0.00 0.00 32 1006.1
20260503233045 72 349 2.0 8.0 0.00 0.00 0.00 31 1006.1
20260503231539 72 301 3.0 15.0 0.00 0.00 0.00 30 1006.3
20260503230035 72 300 6.0 13.0 0.00 0.00 0.00 31 1006.3
20260503224541 73 55 2.0 12.0 0.00 0.00 0.00 31 1006.2
20260503223040 73 333 1.0 11.0 0.00 0.00 0.00 34 1006.3
20260503221544 72 280 5.0 14.0 0.00 0.00 0.00 33 1006.3
20260503220036 73 330 3.0 11.0 0.00 0.00 0.00 32 1006.4
20260503214542 73 321 6.0 16.0 0.00 0.00 0.00 36 1006.4
20260503213037 72 297 2.0 10.0 0.00 0.00 0.00 35 1006.5
20260503211541 72 293 4.0 12.0 0.00 0.00 0.00 34 1006.6
20260503210039 73 278 3.0 8.0 0.00 0.00 0.00 36 1006.8
20260503204542 73 304 2.0 9.0 0.00 0.00 0.00 36 1006.9
20260503203046 72 302 5.0 13.0 0.00 0.00 0.00 38 1006.9
20260503201533 73 32 1.0 8.0 0.00 0.00 0.00 35 1007.1
20260503200048 73 324 2.0 7.0 0.00 0.00 0.00 36 1007.3
20260503194541 72 8 3.0 13.0 0.00 0.00 0.00 35 1007.4
20260503193035 72 5 3.0 9.0 0.00 0.00 0.00 37 1007.5
20260503191536 72 336 3.0 9.0 0.00 0.00 0.00 36 1007.7
20260503190043 72 269 3.0 7.0 0.00 0.00 0.00 38 1007.6
20260503184542 71 295 3.0 12.0 0.00 0.00 0.00 38 1007.7
20260503183038 72 349 2.0 10.0 0.00 0.00 0.00 41 1007.8
20260503181536 71 27 3.0 11.0 0.00 0.00 0.00 40 1007.9
20260503180035 71 300 4.0 15.0 0.00 0.00 0.00 37 1007.9
20260503174543 71 311 2.0 7.0 0.00 0.00 0.00 41 1008.0
20260503173040 70 276 2.0 12.0 0.00 0.00 0.00 41 1008.0
20260503171545 70 17 2.0 8.0 0.00 0.00 0.00 41 1008.1